MORELOS 3

Last updated on Sat Jun 21 2025 00:02:45 GMT+0000 (Coordinated Universal Time)

1 40946U 15056A 25171.55157034 -.00000035 00000+0 00000+0 0 9993 2 40946 2.9891 4.2028 0000361 34.8720 315.3982 1.00270608 35658
UTC large
Height (km)
Speed (km/s)
/
Latitude / Longitude
Inclination (degrees)
Orbital Period (minutes)
Azimuth
Elevation
Range (km)
Doppler Factor

Next 0 passes for location: London (51.5072 / 0.1276)

Sorry there are no passes over London.